Tracking 35331 objects as of 16-Sep-2026
HD Live streaming from Space Station
objects crossing your sky now

SL-4 R/B


SL-4 R/B is no longer on orbit


NORAD ID: 25168
Int'l Code: 1998-009B
Launch date: February 17, 1998
Source: Commonwealth of Independent States (former USSR) (CIS)
Launch site: TYURATAM MISSILE AND SPACE COMPLEX (TTMTR)
Decay date: 1998-02-21

Note: This is a ROCKET BODY
Your satellite tracking list
Your tracking list is empty




NASA's NSSDC Master Catalog

Two Line Element Set (TLE):
1 25168U 98009B   98052.30912496  .26697829  42690-5  23223-3 0  9996
2 25168 070.3644 337.6080 0011650 066.4355 293.9811 16.51342787   633
Source of the keplerian elements: AFSPC